Regional Weather Roundup
Issued by NWS

Home | Current Version | Previous Version | Text Only | Print | Product List | Glossary Off
Versions: 1 2 3 4 5 6 7 8 9 10 11 12 13 14 15 16 17 18 19 20 21 22 23 24 25 26 27 28 29 30 31 32 33 34 35 36 37 38 39 40 41 42 43 44 45 46 47 48 49 50

000
ASUS43 KIND 041159
RWRIN

WEATHER ROUNDUP FOR INDIANA
NATIONAL WEATHER SERVICE INDIANAPOLIS IN
800 AM EDT WED MAY 04 2016

NOTE: "FAIR" INDICATES FEW OR NO CLOUDS BELOW 12,000 FEET WITH NO
SIGNIFICANT WEATHER AND/OR OBSTRUCTIONS TO VISIBILITY.

* - STATION DOES NOT REPORT WEATHER SUCH AS PRECIPITATION OR FOG.

+ - STATION NOT QUALITY CONTROLLED BY THE NATIONAL WEATHER SERVICE.
    USE DATA WITH CAUTION...ESPECIALLY DEWPOINT AND RELATIVE
    HUMIDITY OBSERVATIONS.

INZ001>003-010>013-019-020-041300-
NORTHWEST INDIANA

CITY           SKY/WX    TMP DP  RH WIND       PRES   REMARKS
GARY /AIRPORT/ PTSUNNY   45  45 100 N28       29.69R
RENSSELAER +   CLOUDY    50  46  87 NW10G17   29.66R
VALPARAISO     CLOUDY    45  43  93 N13       29.65R

$$

LMZ046-743>745-041300-
SOUTHERN LAKE MICHIGAN

STATION/POSITION TIME  TEMP    WIND        PRES    WAVE
                       AIR SEA DIR/SP/G            HT
                 (UTC) (F)     (DEG/KT/KT) (MB)    (FT)
BURNS HARBOR     1104   45     340/ 17/ 21 1004.4R

$$

INZ004-005-014>016-021>024-041300-
NORTH CENTRAL INDIANA

CITY           SKY/WX    TMP DP  RH WIND       PRES   REMARKS
ELKHART        RAIN      48  48 100 NW8       29.61R
GOSHEN         LGT RAIN  50  47  89 SW5       29.58F FOG
6HR MIN TEMP:  49; 6HR MAX TEMP:  54; 6HR PCP:  0.12;

SOUTH BEND     LGT RAIN  46  45  96 N13G20    29.62R
6HR MIN TEMP:  46; 6HR MAX TEMP:  55; 6HR PCP:  0.37;


$$

INZ006>009-017-018-025>027-041300-
NORTHEAST INDIANA

CITY           SKY/WX    TMP DP  RH WIND       PRES   REMARKS
ANGOLA *+      CLOUDY    50  46  87 S5        29.59S
FORT WAYNE     LGT RAIN  51  45  79 SW12      29.62F
6HR MIN TEMP:  50; 6HR MAX TEMP:  53; 6HR PCP: TRACE;


$$

INZ028-029-035-036-043>045-051>053-041300-
WEST CENTRAL INDIANA

CITY           SKY/WX    TMP DP  RH WIND       PRES   REMARKS
CRAWFORDSVL +  CLOUDY    48  48 100 SW8       29.67R
6HR MIN TEMP:  47; 6HR MAX TEMP:  51; 6HR PCP:  0.12;

GREENCASTLE +  LGT RAIN  46  46 100 S8G16     29.66F
LAFAYETTE      CLOUDY    50  48  93 W9        29.65R
6HR MIN TEMP:  49; 6HR MAX TEMP:  53; 6HR PCP:  0.15;

TERRE HAUTE    CLOUDY    50  48  93 S13       29.68F FOG
6HR MIN TEMP:  50; 6HR MAX TEMP:  53; 6HR PCP:  0.27;


$$

INZ030>032-037>040-046>048-054>057-064-065-041300-
CENTRAL INDIANA

CITY           SKY/WX    TMP DP  RH WIND       PRES   REMARKS
COLUMBUS       PTSUNNY   50  46  87 S9        29.70F
INDIANAPOLIS   LGT RAIN  50  46  86 SW20G29   29.66F
6HR MIN TEMP:  50; 6HR MAX TEMP:  53; 6HR PCP:  0.03;

-EAGLE CREEK   LGT RAIN  51  47  86 SW9G23    29.65F
6HR MIN TEMP:  51; 6HR MAX TEMP:  54; 6HR PCP:  0.05;

KOKOMO *+      CLOUDY    50  45  81 SW18G24   29.62F
6HR MIN TEMP:  50; 6HR MAX TEMP:  55; 6HR PCP:  0.07;

SHELBYVILLE    LGT RAIN  53  45  74 W9        29.70R
6HR MIN TEMP:  51; 6HR MAX TEMP:  53; 6HR PCP:  0.02;


$$

INZ033-034-041-042-049-050-058-059-041300-
EAST CENTRAL INDIANA

CITY           SKY/WX    TMP DP  RH WIND       PRES   REMARKS
MUNCIE         LGT RAIN  52  44  74 SW12      29.65S
6HR MIN TEMP:  52; 6HR MAX TEMP:  55; 6HR PCP:  0.01;


$$

INZ060-061-067>069-081>083-085>088-041300-
SOUTHWEST INDIANA

CITY           SKY/WX    TMP DP  RH WIND       PRES   REMARKS
EVANSVILLE     CLOUDY    52  45  77 SW10      29.75F
6HR MIN TEMP:  47; 6HR MAX TEMP:  52;

HUNTINGBURG *+ MOSUNNY   52  45  76 S8        29.75F
6HR MIN TEMP:  46; 6HR MAX TEMP:  54;


$$

INZ062-063-066-070>080-084-089>092-041300-
SOUTH CENTRAL AND SOUTHEAST INDIANA

CITY           SKY/WX    TMP DP  RH WIND       PRES   REMARKS
BLOOMINGTON    LGT RAIN  51  45  79 W9        29.73R
6HR MIN TEMP:  50; 6HR MAX TEMP:  53; 6HR PCP:  0.04;

MADISON *+     SUNNY     50  45  81 S6        29.75F
SEYMOUR +      CLOUDY    54  45  71 S10       29.72S

$$




USA.gov is the U.S. government's official web portal to all federal, state and local government web resources and services.